Estación de Negrete
Ultimos registro cada 15 minutos 26
| N° | Estación | Fecha / Hora | Temperatura | Humedad | Lluvia | Velocidad | Dirección | Radiación | Presion |
| 26 | Negrete | 08-05-2026 06:15 | 7,8 | 97,2 | 0 | 0 | 32 | 0,6 | 1011 |
| 25 | Negrete | 08-05-2026 06:00 | 7,8 | 97,3 | 0 | 0 | 35 | 0,6 | 1010,9 |
| 24 | Negrete | 08-05-2026 05:45 | 7,8 | 97,2 | 0,4 | 0 | 358 | 0,6 | 1011 |
| 23 | Negrete | 08-05-2026 05:30 | 7,9 | 96,9 | 0,2 | 0 | 345 | 0,6 | 1011,1 |
| 22 | Negrete | 08-05-2026 05:15 | 7,9 | 96,7 | 0,2 | 0 | 355 | 0,6 | 1011,1 |
| 21 | Negrete | 08-05-2026 05:00 | 7,9 | 96,8 | 0 | 0 | 354 | 0,6 | 1011,3 |
| 20 | Negrete | 08-05-2026 04:45 | 7,9 | 96,6 | 0 | 0 | 11 | 0,6 | 1011,2 |
| 19 | Negrete | 08-05-2026 04:30 | 7,9 | 96,6 | 0,2 | 0 | 0 | 0,6 | 1011,4 |
| 18 | Negrete | 08-05-2026 04:15 | 8,1 | 96,7 | 0,2 | 0 | 7 | 0,6 | 1011,4 |
| 17 | Negrete | 08-05-2026 04:00 | 8,1 | 96,3 | 0 | 0 | 29 | 0,6 | 1011,7 |
| 16 | Negrete | 08-05-2026 03:45 | 8,1 | 95,5 | 0 | 0 | 355 | 0,6 | 1011,9 |
| 15 | Negrete | 08-05-2026 03:30 | 8,4 | 92,9 | 0,2 | 0 | 3 | 0,6 | 1011,9 |
| 14 | Negrete | 08-05-2026 03:15 | 8,5 | 91,6 | 0 | 0 | 4 | 0,6 | 1012,4 |
| 13 | Negrete | 08-05-2026 03:00 | 8,5 | 91,9 | 0 | 0 | 14 | 0,6 | 1012,3 |
| 12 | Negrete | 08-05-2026 02:45 | 8,5 | 90,6 | 0 | 0 | 11 | 0,6 | 1012,4 |
| 11 | Negrete | 08-05-2026 02:30 | 8,4 | 91,2 | 0 | 0 | 338 | 0,6 | 1012,4 |
| 10 | Negrete | 08-05-2026 02:15 | 8,5 | 90,7 | 0 | 0 | 3 | 0,6 | 1012,6 |
| 9 | Negrete | 08-05-2026 02:00 | 8,4 | 90,9 | 0 | 0 | 0 | 0,6 | 1012,7 |
| 8 | Negrete | 08-05-2026 01:45 | 8,3 | 91,1 | 0 | 0 | 1 | 0,6 | 1012,9 |
| 7 | Negrete | 08-05-2026 01:30 | 8,2 | 92,6 | 0 | 0 | 8 | 0,6 | 1013 |
| 6 | Negrete | 08-05-2026 01:15 | 8,1 | 92,9 | 0 | 0 | 1 | 0,6 | 1013,5 |
| 5 | Negrete | 08-05-2026 01:00 | 8,1 | 93,1 | 0 | 0 | 1 | 0,6 | 1013,9 |
| 4 | Negrete | 08-05-2026 00:45 | 8 | 94 | 0 | 0 | 0 | 0,6 | 1013,8 |
| 3 | Negrete | 08-05-2026 00:30 | 7,9 | 93,7 | 0 | 0 | 0 | 0,6 | 1013,9 |
| 2 | Negrete | 08-05-2026 00:15 | 7,9 | 94,2 | 0 | 0 | 0 | 0,6 | 1014,1 |
| 1 | Negrete | 08-05-2026 00:00 | 7,9 | 93,3 | 0 | 0 | 0 | 0,6 | 1014,2 |